User: anonymous   Login
Location: Unspecified
(0.0000°N, 0.0000°E)
Time: 20:09:56
(UTC+00:00)
Language:

STARLINK-34797 - Orbit

View from above orbital plane
View from above orbital plane
View from above satellite
View from above satellite

Ground track
Ground track

The orbit is defined by the following mean orbital elements,

1 65363U          26145.58335647 +.00000000 +00000-0 +11293-2 0 00003
2 65363  53.1591 171.0635 0000946  70.3996  62.4470 15.33531966    00
Epoch (UTC): 25 May 2026 14:00:01
Eccentricity: 0.0000946
inclination: 53.1591°
perigee height: 465 km
apogee height: 466 km
right ascension of ascending node: 171.0635°
argument of perigee: 70.3996°
revolutions per day: 15.33531966
mean anomaly at epoch: 62.4470°

The dashed part of the orbit path shows where the satellite is in the earth's shadow,  

DLR